User: anonymous   Login
Location: ??????
(38.0131°N, 23.7723°E)
Time: 02:56:13
(UTC+00:00)
Language:

Feng Yun 1-1 Rocket - Orbit

View from above orbital plane
View from above orbital plane
View from above satellite
View from above satellite

Ground track
Ground track

The orbit data is extracted from the following two-line orbital elements,

1 19468U 88080B   22019.54167855  .00000101  00000-0  91272-4 0  9994
2 19468  99.1783  50.5294 0072288  75.9670  40.4946 14.03531509708589
Epoch (UTC): 19 January 2022 13:00:01
Eccentricity: 0.0072288
inclination: 99.1783°
perigee height: 829 km
apogee height: 934 km
right ascension of ascending node: 50.5294°
argument of perigee: 75.9670°
revolutions per day: 14.03531509
mean anomaly at epoch: 40.4946°
orbit number at epoch: 70858

The dashed part of the orbit path shows where the satellite is in the earth's shadow,  

DLR